Wind_Speed
13 13 13 13 13 14 14 14 14 12 13 12 12 13 14 15 16 17 17 18 18 17 17 17 17 17 17 17 17 17 17 18 18 19 19 20 20 20 20 21 21 22 23 23
14 15 14 14 15 15 16 16 15 15 15 15 15 16 17 17 18 18 18 18 17 17 17 17 16 16 16 16 16 16 16 16 17 17 17 18 18 18 19 19 19 20 20 22
16 17 17 16 16 17 17 17 17 17 17 18 18 18 18 19 19 19 18 17 17 17 17 17 17 17 17 17 17 17 16 16 15 16 16 17 17 18 19 20 20 22 22 23
19 19 19 18 17 17 17 18 18 19 19 19 19 19 19 20 20 20 20 20 20 20 19 19 18 18 17 17 17 17 17 17 17 17 17 17 18 18 19 20 21 22 23 24
22 21 20 20 20 20 20 20 20 20 20 20 20 20 21 21 21 22 21 22 22 21 20 20 19 18 17 17 18 18 18 18 18 18 18 18 19 20 21 21 22 23 24 25
25 24 23 23 23 23 23 23 22 22 21 21 21 21 21 21 22 22 22 22 21 21 20 19 19 18 18 18 19 18 18 19 19 19 20 20 21 21 21 22 22 23 24 26
27 27 26 26 26 26 26 26 25 24 24 24 23 23 22 22 22 22 22 22 21 21 21 20 20 19 19 19 19 19 19 20 21 21 22 22 22 22 22 23 23 24 26 27
31 31 30 30 30 30 30 29 29 28 27 27 26 26 25 24 24 23 23 23 22 22 22 22 21 21 21 21 22 22 22 22 22 23 23 23 23 23 23 24 25 26 27 29
36 35 34 35 35 35 34 33 32 31 31 30 29 28 27 27 27 26 26 25 25 24 24 24 24 24 24 24 24 24 24 24 24 25 25 25 25 25 25 26 26 27 28 29
39 37 38 38 38 38 37 36 35 35 34 33 32 31 30 30 30 29 28 28 27 27 27 26 27 26 26 26 26 26 26 26 26 27 26 27 27 27 28 28 29 30 31 31
43 41 41 40 40 40 40 39 38 37 37 36 35 34 33 33 32 32 31 30 30 29 29 29 29 28 28 28 28 28 29 29 29 29 29 29 29 29 30 30 31 32 33 33
45 44 45 42 41 41 41 40 40 40 39 39 38 37 35 35 34 34 33 33 32 32 31 31 31 31 31 30 30 30 30 30 30 30 31 31 32 32 32 32 33 33 34 35
46 46 47 45 44 43 43 42 41 41 40 39 39 38 37 36 36 35 35 35 34 34 34 34 34 33 33 33 32 32 33 33 33 33 33 33 33 34 34 34 34 35 36 37
47 48 47 46 46 45 45 44 43 42 42 41 40 39 38 37 37 36 36 36 36 36 36 36 36 36 36 35 35 34 34 34 34 34 35 35 35 35 35 35 36 37 37 38
48 49 49 47 47 46 46 45 44 43 43 42 42 41 40 39 37 36 36 36 36 36 37 37 37 37 37 38 37 37 36 36 36 36 36 36 37 36 36 36 37 37 38 38
49 49 49 48 47 46 46 45 44 43 43 42 42 41 40 39 38 37 37 37 37 37 37 37 37 37 38 38 38 38 38 37 38 37 37 37 37 37 37 37 38 38 38 38
48 48 48 47 46 45 44 43 43 43 42 42 41 41 40 40 39 39 38 38 38 38 38 38 38 39 39 38 38 38 38 38 37 37 37 37 37 37 37 38 38 38 38 39
46 46 46 46 45 44 43 42 41 41 41 41 41 41 41 41 40 40 40 39 39 39 39 39 39 39 39 39 38 38 37 37 37 37 37 37 37 37 37 37 38 38 38 39
44 44 44 44 44 43 42 42 41 41 41 40 40 40 40 41 41 40 40 40 40 39 39 39 39 39 39 39 39 38 38 38 37 37 37 38 38 37 37 37 37 37 38 39
43 43 43 43 42 41 41 41 41 40 40 40 39 39 40 40 40 40 40 40 40 40 40 40 40 39 39 39 39 38 38 38 38 38 38 38 38 38 37 37 37 38 38 38
42 42 42 42 41 40 40 40 39 38 38 39 39 39 39 39 40 39 39 39 39 39 39 39 39 39 38 38 38 37 37 37 38 38 37 37 37 37 37 37 37 38 38 38
42 42 42 41 40 40 39 40 40 40 39 39 39 39 39 39 40 40 39 39 39 39 39 38 38 38 38 38 37 36 36 36 36 36 36 36 36 37 37 37 37 37 37 37
42 41 41 40 40 40 40 40 40 40 40 40 39 39 39 39 39 39 39 39 39 39 39 38 38 37 37 36 35 34 34 34 34 35 35 36 36 36 36 36 36 37 36 36
43 43 42 41 41 41 40 40 39 39 39 39 38 38 38 38 38 38 39 39 38 38 37 36 36 35 35 34 34 34 34 34 34 34 34 35 35 35 35 35 35 35 35 35
45 44 44 44 43 42 41 40 39 38 38 38 38 38 38 37 37 37 37 37 38 37 36 36 35 34 34 33 33 34 34 33 33 33 33 34 34 33 33 34 34 34 34 34
45 45 44 43 42 42 41 41 40 38 38 38 38 37 37 37 37 37 37 36 36 35 35 35 34 34 33 33 33 33 33 33 32 32 32 32 32 32 32 32 32 33 33 34
45 44 43 43 42 42 41 40 39 38 37 37 36 36 35 35 35 35 35 35 34 33 33 33 33 32 32 32 32 32 32 32 32 31 31 31 31 31 31 31 31 32 32 32
Wind_Direction
309 307 305 302 301 301 301 300 299 301 300 299 291 288 288 290 290 291 292 293 293 294 294 293 292 290 289 288 287 288 290 289 287 285 284 284 284 285 285 283 281 281 280 281
308 308 306 303 300 297 296 297 296 294 295 293 291 292 293 293 295 296 295 295 295 295 296 297 296 293 291 290 290 291 293 296 294 291 291 290 290 289 289 287 285 286 285 286
302 302 303 303 302 299 297 295 293 294 294 292 291 291 292 293 295 297 297 296 297 296 295 295 297 295 292 290 290 290 292 295 297 295 294 293 293 293 294 293 291 290 290 291
297 296 298 300 299 298 298 297 295 293 292 293 292 292 292 292 293 295 294 294 295 294 294 292 293 293 292 290 289 287 288 294 297 298 297 297 298 299 298 297 296 295 293 293
296 295 295 295 295 295 295 295 295 293 292 292 291 289 289 289 290 292 293 292 292 291 292 291 291 290 290 290 289 287 288 292 294 296 297 298 300 300 299 297 296 296 296 295
294 293 293 293 292 292 292 292 292 291 290 291 290 289 288 288 288 288 290 291 289 289 290 290 290 290 289 289 289 288 290 291 293 296 297 296 297 299 300 299 297 297 296 297
288 289 289 291 289 288 289 291 290 289 288 287 287 287 288 288 288 288 290 289 288 288 287 287 288 288 288 288 288 289 291 292 294 296 298 298 298 298 298 298 298 298 298 298
284 285 287 286 285 285 285 285 286 285 284 283 284 285 285 286 285 285 287 287 287 286 286 285 285 284 284 284 285 286 288 291 293 295 297 298 297 297 297 298 298 299 300 301
282 283 283 282 282 281 282 283 283 283 283 282 281 281 281 282 282 282 283 284 283 283 283 283 283 282 282 282 283 284 285 288 290 292 294 295 296 295 295 296 298 300 303 304
280 280 278 278 278 279 280 281 281 282 281 281 281 279 279 279 279 278 278 279 280 281 281 280 280 280 279 280 281 282 283 285 287 290 293 294 294 293 293 294 296 299 301 303
279 279 277 276 276 277 278 278 278 278 279 278 278 278 279 278 277 277 276 275 276 277 278 278 279 279 279 280 281 281 282 284 286 287 289 292 294 294 293 293 295 297 299 301
279 278 277 277 275 275 275 275 275 276 276 277 277 277 277 277 276 275 274 274 273 274 276 277 278 278 278 279 280 280 281 283 285 287 289 291 293 293 293 293 294 296 298 300
278 276 276 277 277 276 275 274 274 275 275 276 276 276 277 276 275 274 273 272 273 273 275 276 277 278 278 278 279 280 281 282 284 286 288 290 292 293 293 293 293 296 298 300
276 275 275 276 276 275 275 274 274 274 275 275 276 276 276 276 276 274 273 273 273 273 275 276 277 277 277 277 278 279 280 281 283 285 287 289 291 293 292 293 294 295 297 299
276 276 276 275 275 274 275 274 274 274 274 274 275 276 275 275 275 275 273 273 274 274 275 276 277 277 277 278 277 278 279 281 283 285 286 288 290 291 292 292 294 295 297 298
277 277 276 275 274 274 274 274 273 273 273 273 273 274 274 274 273 273 273 273 274 274 275 276 276 277 278 278 278 278 278 280 282 283 285 287 288 289 291 292 293 294 296 298
277 277 276 276 275 275 274 273 273 272 272 272 272 272 272 272 272 272 272 272 272 273 273 274 275 276 277 278 278 278 278 279 281 282 284 285 287 288 290 291 293 294 296 298
278 278 276 275 275 274 273 272 272 271 272 272 273 272 271 271 271 271 271 271 271 271 273 273 274 275 275 276 277 277 278 280 281 281 283 284 286 288 289 290 292 294 296 298
278 276 276 275 275 274 273 272 271 272 272 272 273 272 271 270 270 270 270 270 271 271 272 273 273 274 275 275 276 277 277 278 279 281 282 283 285 286 288 290 291 294 296 298
276 275 275 275 275 274 273 272 272 272 272 272 272 273 272 270 269 268 269 270 271 271 271 272 273 274 275 275 276 277 277 277 278 280 282 283 285 286 287 289 291 294 296 298
274 274 274 274 274 274 274 273 271 270 271 271 272 272 271 269 268 267 268 270 271 271 271 272 273 273 274 275 277 277 277 277 279 280 281 282 284 286 287 289 292 294 295 297
273 274 274 273 273 274 275 274 272 271 271 272 272 273 272 270 267 266 267 269 271 271 271 272 273 273 274 276 277 277 277 278 279 280 281 282 284 285 287 289 291 293 295 297
272 273 273 272 273 274 274 274 273 272 272 272 272 272 272 270 268 267 267 268 270 270 271 271 273 274 274 274 274 275 277 279 280 281 281 282 284 286 288 289 291 293 295 297
271 271 271 272 273 274 273 272 273 272 272 271 272 272 272 271 270 269 269 269 270 271 271 271 272 273 274 273 273 274 277 279 281 281 282 283 284 286 288 290 292 294 296 298
270 270 270 271 272 272 271 271 271 271 270 270 270 270 271 272 271 270 271 271 272 272 271 270 270 270 271 272 273 274 276 279 280 281 283 284 285 287 288 290 292 294 296 298
269 269 269 269 270 271 270 270 270 269 268 268 268 269 271 272 271 271 272 272 273 272 271 270 269 268 269 271 273 275 277 279 281 283 284 284 285 287 289 291 292 295 297 299
268 268 268 268 269 270 270 270 268 267 266 267 268 268 269 270 270 271 272 273 272 271 270 269 268 268 269 271 274 275 277 279 280 281 282 284 285 287 289 292 294 296 298 300
Height
5687 5685 5683 5682 5681 5679 5677 5676 5674 5674 5672 5671 5668 5667 5666 5665 5663 5662 5660 5658 5656 5653 5651 5649 5647 5646 5644 5643 5641 5640 5639 5637 5636 5634 5633 5631 5630 5629 5628 5627 5626 5626 5625 5624
5685 5683 5680 5679 5678 5676 5674 5672 5671 5670 5669 5667 5665 5664 5662 5661 5659 5658 5656 5654 5652 5650 5648 5646 5644 5642 5640 5639 5637 5636 5635 5633 5632 5630 5629 5627 5626 5625 5624 5623 5622 5621 5620 5619
5681 5679 5678 5677 5675 5672 5670 5669 5667 5665 5665 5663 5661 5659 5658 5657 5655 5653 5651 5650 5648 5646 5644 5642 5640 5638 5636 5635 5633 5632 5631 5630 5628 5626 5625 5623 5622 5621 5619 5618 5617 5616 5615 5613
5677 5676 5674 5675 5671 5669 5667 5665 5663 5661 5660 5658 5656 5655 5653 5652 5650 5648 5647 5645 5643 5641 5640 5638 5636 5634 5632 5630 5629 5628 5627 5625 5624 5622 5621 5619 5618 5616 5614 5613 5612 5610 5609 5607
5671 5670 5669 5669 5667 5664 5662 5661 5658 5656 5655 5653 5651 5650 5649 5647 5645 5643 5641 5640 5638 5636 5635 5633 5631 5629 5628 5626 5625 5624 5622 5621 5620 5618 5617 5615 5613 5611 5610 5608 5606 5605 5603 5601
5666 5663 5663 5664 5661 5658 5657 5655 5653 5651 5649 5648 5646 5645 5644 5641 5640 5638 5636 5634 5633 5631 5630 5628 5626 5625 5623 5622 5620 5619 5618 5616 5615 5614 5612 5610 5608 5606 5604 5602 5600 5599 5597 5594
5659 5657 5657 5657 5655 5652 5652 5650 5647 5645 5643 5642 5640 5639 5638 5636 5634 5632 5631 5629 5627 5626 5624 5623 5621 5620 5619 5617 5616 5614 5613 5611 5610 5608 5607 5605 5603 5601 5599 5597 5594 5592 5590 5587
5652 5650 5652 5649 5646 5645 5643 5641 5639 5637 5636 5635 5634 5632 5631 5629 5628 5626 5625 5623 5622 5620 5619 5617 5616 5614 5613 5612 5611 5609 5608 5606 5604 5603 5601 5599 5597 5595 5592 5590 5588 5585 5583 5580
5644 5645 5642 5639 5637 5635 5633 5632 5630 5629 5627 5626 5626 5625 5624 5622 5621 5619 5618 5617 5615 5614 5612 5611 5609 5608 5607 5605 5604 5603 5601 5600 5598 5596 5594 5592 5590 5588 5586 5583 5581 5578 5575 5572
5632 5633 5631 5628 5626 5625 5623 5622 5621 5620 5618 5617 5616 5616 5615 5614 5612 5611 5610 5609 5608 5606 5605 5604 5602 5601 5599 5598 5597 5596 5595 5593 5591 5590 5587 5585 5583 5581 5578 5576 5573 5570 5567 5564
5619 5620 5618 5617 5615 5614 5613 5611 5610 5609 5608 5607 5606 5606 5605 5604 5603 5602 5601 5600 5599 5598 5597 5596 5594 5593 5592 5591 5589 5588 5587 5585 5584 5582 5580 5578 5575 5573 5570 5568 5565 5562 5559 5556
5606 5607 5604 5605 5604 5602 5601 5600 5599 5598 5597 5596 5595 5595 5594 5593 5593 5592 5591 5590 5590 5589 5588 5587 5586 5585 5583 5582 5581 5580 5579 5577 5575 5573 5571 5569 5567 5564 5561 5559 5556 5553 5550 5546
5592 5591 5590 5591 5591 5589 5588 5587 5587 5586 5586 5585 5584 5583 5583 5583 5582 5582 5581 5580 5580 5579 5578 5577 5576 5575 5574 5573 5572 5571 5569 5568 5566 5564 5562 5560 5557 5554 5552 5549 5546 5543 5540 5536
5578 5576 5576 5577 5576 5576 5574 5574 5574 5574 5573 5573 5572 5572 5572 5571 5571 5570 5570 5570 5569 5568 5568 5567 5566 5565 5564 5563 5562 5561 5559 5558 5556 5554 5552 5550 5548 5545 5542 5539 5536 5533 5530 5526
5564 5562 5562 5563 5562 5562 5561 5561 5561 5561 5561 5560 5560 5560 5560 5559 5559 5559 5558 5558 5558 5557 5557 5556 5555 5554 5553 5552 5551 5550 5549 5547 5546 5544 5542 5540 5537 5534 5532 5529 5526 5523 5519 5516
5550 5548 5547 5547 5548 5548 5547 5547 5547 5548 5547 5547 5547 5547 5547 5547 5547 5547 5546 5546 5546 5546 5545 5544 5544 5543 5541 5541 5540 5539 5538 5537 5535 5533 5531 5529 5527 5524 5521 5519 5516 5512 5509 5505
5535 5534 5533 5533 5533 5533 5533 5533 5534 5534 5533 5534 5534 5534 5533 5534 5534 5534 5534 5534 5534 5533 5533 5533 5532 5531 5530 5529 5528 5527 5526 5525 5524 5522 5520 5518 5516 5513 5511 5508 5505 5502 5498 5495
5521 5520 5520 5519 5519 5520 5520 5520 5520 5520 5520 5520 5520 5520 5520 5521 5521 5521 5521 5521 5521 5521 5521 5521 5520 5519 5518 5518 5517 5516 5515 5514 5512 5511 5509 5507 5505 5503 5500 5497 5495 5491 5488 5484
5508 5507 5506 5506 5506 5506 5506 5506 5506 5507 5507 5507 5507 5507 5507 5507 5507 5508 5508 5508 5508 5508 5508 5508 5507 5507 5506 5506 5505 5504 5503 5502 5501 5500 5498 5496 5494 5492 5489 5487 5484 5481 5477 5474
5494 5493 5493 5493 5493 5493 5493 5493 5493 5494 5494 5494 5494 5494 5494 5494 5494 5495 5495 5495 5495 5495 5495 5495 5495 5495 5494 5494 5493 5493 5492 5491 5490 5488 5487 5485 5483 5481 5479 5476 5473 5470 5467 5463
5481 5481 5480 5480 5480 5480 5480 5480 5480 5481 5481 5481 5481 5481 5481 5481 5481 5482 5482 5483 5483 5483 5483 5483 5483 5483 5482 5482 5481 5481 5480 5479 5478 5477 5475 5474 5472 5470 5468 5466 5463 5460 5456 5453
5469 5468 5468 5468 5468 5468 5468 5468 5468 5468 5468 5468 5468 5468 5468 5468 5468 5469 5470 5470 5470 5471 5471 5471 5471 5471 5471 5470 5470 5469 5469 5468 5467 5465 5464 5463 5461 5459 5457 5455 5452 5449 5446 5443
5456 5456 5456 5456 5455 5455 5456 5456 5455 5455 5455 5456 5456 5455 5455 5456 5456 5456 5457 5458 5458 5458 5458 5459 5459 5459 5459 5459 5458 5458 5457 5457 5456 5455 5453 5452 5451 5449 5447 5444 5442 5439 5436 5432
5443 5443 5443 5443 5443 5443 5443 5443 5443 5443 5443 5443 5443 5443 5443 5443 5444 5444 5444 5445 5445 5446 5446 5447 5447 5447 5447 5447 5447 5447 5446 5446 5445 5444 5443 5441 5440 5438 5436 5434 5431 5429 5425 5422
5429 5429 5429 5429 5429 5429 5429 5429 5430 5430 5430 5430 5430 5431 5431 5431 5431 5432 5432 5433 5433 5434 5435 5435 5435 5436 5436 5436 5436 5436 5436 5435 5434 5433 5432 5431 5429 5427 5425 5423 5421 5419 5416 5412
5414 5415 5415 5415 5415 5415 5415 5415 5416 5417 5417 5417 5418 5419 5419 5419 5419 5420 5420 5421 5421 5422 5423 5423 5424 5424 5425 5425 5425 5425 5425 5425 5424 5423 5422 5420 5419 5417 5415 5413 5411 5409 5406 5402
5399 5400 5401 5402 5402 5402 5401 5401 5402 5403 5404 5404 5406 5407 5407 5407 5408 5408 5409 5409 5410 5410 5411 5412 5412 5413 5414 5414 5415 5415 5414 5414 5413 5413 5411 5410 5409 5407 5405 5403 5401 5399 5396 5393